Time,TemperatureF,DewpointF,PressureIn,WindDirection,WindDirectionDegrees,WindSpeedMPH,WindSpeedGustMPH,Humidity,HourlyPrecipIn,Conditions,Clouds,dailyrainin,SoftwareType,DateUTC
2013-06-11 07:11:00,62.0,38.6,29.49,NE,49,0.0,3.0,42,0.00,,,0.00,Wunderground v.1.15,2013-06-11 13:11:00,
2013-06-11 07:21:00,64.2,36.7,29.48,NE,49,0.0,3.0,36,0.00,,,0.00,Wunderground v.1.15,2013-06-11 13:21:00,
2013-06-11 07:26:00,65.8,38.1,29.48,NE,49,0.0,3.0,36,0.00,,,0.00,Wunderground v.1.15,2013-06-11 13:26:00,
2013-06-11 07:36:00,68.6,38.3,29.45,East,88,0.0,3.0,33,0.00,,,0.00,Wunderground v.1.15,2013-06-11 13:36:00,
2013-06-11 07:41:00,69.8,37.8,29.45,East,88,0.0,3.0,31,0.00,,,0.00,Wunderground v.1.15,2013-06-11 13:41:00,
2013-06-11 07:46:00,70.9,37.9,29.45,East,88,0.0,3.0,30,0.00,,,0.00,Wunderground v.1.15,2013-06-11 13:46:00,
2013-06-11 07:51:00,72.1,36.3,29.44,ENE,73,0.0,3.0,27,0.00,,,0.00,Wunderground v.1.15,2013-06-11 13:51:00,
2013-06-11 07:56:00,73.2,38.1,29.44,ENE,73,0.0,3.0,28,0.00,,,0.00,Wunderground v.1.15,2013-06-11 13:56:00,
2013-06-11 08:11:00,75.8,36.4,29.42,ENE,65,0.0,3.0,24,0.00,,,0.00,Wunderground v.1.15,2013-06-11 14:11:00,
2013-06-11 08:16:00,76.3,37.9,29.42,ENE,66,0.0,3.0,25,0.00,,,0.00,Wunderground v.1.15,2013-06-11 14:16:00,
2013-06-11 08:26:00,77.4,37.8,29.41,ENE,76,0.0,3.0,24,0.00,,,0.00,Wunderground v.1.15,2013-06-11 14:26:00,
2013-06-11 08:31:00,77.7,38.0,29.41,ENE,78,0.0,3.0,24,0.00,,,0.00,Wunderground v.1.15,2013-06-11 14:31:00,
2013-06-11 08:41:00,78.8,42.0,29.43,ENE,78,0.0,3.0,27,0.00,,,0.00,Wunderground v.1.15,2013-06-11 14:41:00,
2013-06-11 08:46:00,79.4,41.5,29.43,ENE,78,0.0,3.0,26,0.00,,,0.00,Wunderground v.1.15,2013-06-11 14:46:00,
2013-06-11 08:51:00,80.1,41.1,29.41,East,89,0.0,3.0,25,0.00,,,0.00,Wunderground v.1.15,2013-06-11 14:51:00,
2013-06-11 08:56:00,80.9,39.6,29.41,East,90,0.0,3.0,23,0.00,,,0.00,Wunderground v.1.15,2013-06-11 14:56:00,
2013-06-11 09:11:00,82.2,41.8,29.40,East,90,0.0,3.0,24,0.00,,,0.00,Wunderground v.1.15,2013-06-11 15:11:00,
2013-06-11 09:16:00,82.6,44.2,29.40,East,90,0.0,3.0,26,0.00,,,0.00,Wunderground v.1.15,2013-06-11 15:16:00,
2013-06-11 09:21:00,83.4,39.4,29.38,East,90,0.0,3.0,21,0.00,,,0.00,Wunderground v.1.15,2013-06-11 15:21:00,
2013-06-11 09:26:00,84.1,41.1,29.38,East,90,0.0,3.0,22,0.00,,,0.00,Wunderground v.1.15,2013-06-11 15:26:00,
2013-06-11 09:36:00,85.7,40.0,29.40,NE,52,0.0,3.0,20,0.00,,,0.00,Wunderground v.1.15,2013-06-11 15:36:00,
2013-06-11 09:41:00,86.7,39.5,29.40,ENE,71,0.0,3.0,19,0.00,,,0.00,Wunderground v.1.15,2013-06-11 15:41:00,
2013-06-11 09:46:00,87.2,37.1,29.40,East,85,0.0,3.0,17,0.00,,,0.00,Wunderground v.1.15,2013-06-11 15:46:00,
2013-06-11 09:51:00,87.6,38.8,29.39,East,85,0.0,3.0,18,0.00,,,0.00,Wunderground v.1.15,2013-06-11 15:51:00,
2013-06-11 10:01:00,88.4,33.1,29.39,North,0,0.0,3.0,14,0.00,,,0.00,Wunderground v.1.15,2013-06-11 16:01:00,
2013-06-11 10:11:00,89.0,33.6,29.37,NE,45,0.0,3.0,14,0.00,,,0.00,Wunderground v.1.15,2013-06-11 16:11:00,
2013-06-11 10:16:00,89.5,30.2,29.37,SW,224,1.0,3.0,12,0.00,,,0.00,Wunderground v.1.15,2013-06-11 16:16:00,
2013-06-11 10:26:00,91.0,31.3,29.36,SE,145,0.0,3.0,12,0.00,,,0.00,Wunderground v.1.15,2013-06-11 16:26:00,
2013-06-11 13:26:00,96.6,22.5,29.31,SSW,195,3.0,3.0,7,0.00,,,0.00,Wunderground v.1.15,2013-06-11 19:26:00,
2013-06-11 13:31:00,97.1,22.8,29.31,SW,222,2.0,3.0,7,0.00,,,0.00,Wunderground v.1.15,2013-06-11 19:31:00,
2013-06-11 13:36:00,97.1,19.2,29.34,SSW,209,2.0,5.0,6,0.00,,,0.00,Wunderground v.1.15,2013-06-11 19:36:00,
2013-06-11 13:41:00,97.1,22.8,29.34,WSW,239,2.0,2.0,7,0.00,,,0.00,Wunderground v.1.15,2013-06-11 19:41:00,
2013-06-11 13:51:00,96.8,22.6,29.34,WSW,240,2.0,4.0,7,0.00,,,0.00,Wunderground v.1.15,2013-06-11 19:51:00,
2013-06-11 13:56:00,96.6,18.8,29.34,SW,220,3.0,4.0,6,0.00,,,0.00,Wunderground v.1.15,2013-06-11 19:56:00,
2013-06-11 14:01:00,96.8,22.6,29.34,South,182,3.0,3.0,7,0.00,,,0.00,Wunderground v.1.15,2013-06-11 20:01:00,
2013-06-11 14:11:00,97.1,19.2,29.33,SSW,213,3.0,3.0,6,0.00,,,0.00,Wunderground v.1.15,2013-06-11 20:11:00,
2013-06-11 14:21:00,96.6,22.5,29.32,SW,226,4.0,5.0,7,0.00,,,0.00,Wunderground v.1.15,2013-06-11 20:21:00,
2013-06-11 14:31:00,96.6,22.5,29.32,SW,216,3.0,3.0,7,0.00,,,0.00,Wunderground v.1.15,2013-06-11 20:31:00,
2013-06-11 14:36:00,96.8,22.6,29.33,SW,217,3.0,3.0,7,0.00,,,0.00,Wunderground v.1.15,2013-06-11 20:36:00,
2013-06-11 14:41:00,96.8,22.6,29.33,South,182,3.0,3.0,7,0.00,,,0.00,Wunderground v.1.15,2013-06-11 20:41:00,
2013-06-11 14:46:00,96.8,19.0,29.33,SSW,206,3.0,4.0,6,0.00,,,0.00,Wunderground v.1.15,2013-06-11 20:46:00,
2013-06-11 14:56:00,97.1,15.0,29.33,SW,226,3.0,3.0,5,0.00,,,0.00,Wunderground v.1.15,2013-06-11 20:56:00,
2013-06-11 15:01:00,97.1,19.2,29.33,SSW,208,3.0,3.0,6,0.00,,,0.00,Wunderground v.1.15,2013-06-11 21:01:00,
2013-06-11 15:11:00,97.1,22.8,29.33,SW,216,3.0,4.0,7,0.00,,,0.00,Wunderground v.1.15,2013-06-11 21:11:00,
2013-06-11 15:16:00,97.1,19.2,29.33,SSW,209,3.0,4.0,6,0.00,,,0.00,Wunderground v.1.15,2013-06-11 21:16:00,
2013-06-11 15:21:00,97.1,15.0,29.32,South,191,3.0,5.0,5,0.00,,,0.00,Wunderground v.1.15,2013-06-11 21:21:00,
2013-06-11 15:26:00,97.3,19.3,29.32,SW,220,2.0,5.0,6,0.00,,,0.00,Wunderground v.1.15,2013-06-11 21:26:00,
2013-06-11 15:36:00,97.5,26.3,29.33,SSW,213,1.0,5.0,8,0.00,,,0.00,Wunderground v.1.15,2013-06-11 21:36:00,
2013-06-11 15:41:00,97.8,19.7,29.33,SSE,151,2.0,2.0,6,0.00,,,0.00,Wunderground v.1.15,2013-06-11 21:41:00,
2013-06-11 15:51:00,98.0,19.8,29.32,SSW,192,3.0,3.0,6,0.00,,,0.00,Wunderground v.1.15,2013-06-11 21:51:00,
2013-06-11 15:56:00,97.5,19.5,29.32,SW,219,4.0,5.0,6,0.00,,,0.00,Wunderground v.1.15,2013-06-11 21:56:00,
2013-06-11 16:01:00,97.1,19.2,29.32,South,189,5.0,5.0,6,0.00,,,0.00,Wunderground v.1.15,2013-06-11 22:01:00,
2013-06-11 16:11:00,97.8,23.3,29.33,SSW,210,2.0,2.0,7,0.00,,,0.00,Wunderground v.1.15,2013-06-11 22:11:00,
2013-06-11 16:16:00,98.0,19.8,29.33,SSW,196,2.0,3.0,6,0.00,,,0.00,Wunderground v.1.15,2013-06-11 22:16:00,
2013-06-11 16:21:00,98.0,19.8,29.32,SSW,213,2.0,5.0,6,0.00,,,0.00,Wunderground v.1.15,2013-06-11 22:21:00,
2013-06-11 16:31:00,98.0,23.5,29.32,SE,141,2.0,2.0,7,0.00,,,0.00,Wunderground v.1.15,2013-06-11 22:31:00,
2013-06-11 16:36:00,98.0,23.5,29.32,SW,219,2.0,3.0,7,0.00,,,0.00,Wunderground v.1.15,2013-06-11 22:36:00,